EW5791 Weather Reports


Display with metric or nautical units.
time (UTC)temp
F
wind
direction
speed
MPH
gust
MPH
rain 1hr
in
rain 24hr
in
rain mn
in
humidity
%
barometer
mb
20190716180028 78 300 2.0 0.0 0.00 0.00 0.02 87 1010.5
20190716174519 78 10 0.0 0.0 0.00 0.00 0.02 89 1010.5
20190716173036 77 94 0.0 0.0 0.00 0.00 0.02 91 1010.6
20190716171524 77 94 0.0 0.0 0.00 0.00 0.02 91 1010.8
20190716170015 76 159 0.0 0.0 0.00 0.00 0.02 92 1011.0
20190716164527 76 159 0.0 0.0 0.00 0.00 0.02 92 1011.1
20190716163018 76 309 0.0 0.0 0.00 0.00 0.02 91 1011.2
20190716161509 76 290 0.0 0.0 0.00 0.00 0.02 91 1011.2
20190716160016 76 287 0.0 0.0 0.00 0.00 0.02 91 1011.3
20190716154508 76 227 0.0 0.0 0.00 0.00 0.02 92 1011.2
20190716153033 75 232 0.0 0.0 0.00 0.00 0.02 94 1011.0
20190716151522 75 232 0.0 0.0 0.00 0.00 0.02 94 1010.8
20190716150006 75 232 0.0 0.0 0.00 0.00 0.02 94 1010.9
20190716144649 74 232 0.0 0.0 0.00 0.00 0.02 94 1010.8
20190716143214 74 233 0.0 0.0 0.00 0.00 0.02 94 1010.6
20190716141712 73 241 0.0 0.0 0.00 0.00 0.02 95 1010.8
20190716140201 73 241 0.0 0.0 0.00 0.00 0.02 95 1010.8
20190716134623 73 208 0.0 0.0 0.00 0.00 0.02 95 1010.5
20190716133132 72 172 0.0 0.0 0.00 0.00 0.02 95 1010.2
20190716131751 72 145 0.0 0.0 0.00 0.00 0.02 96 1010.5
20190716130334 72 150 0.0 0.0 0.00 0.00 0.02 96 1011.0
20190716124659 71 150 0.0 0.0 0.00 0.00 0.02 96 1011.1
20190716123200 71 150 0.0 0.0 0.00 0.00 0.02 96 1010.9
20190716121710 71 150 0.0 0.0 0.00 0.00 0.02 96 1010.9
20190716120135 71 150 0.0 0.0 0.00 0.00 0.02 96 1010.7
20190716114703 71 150 0.0 0.0 0.00 0.00 0.01 96 1010.9
20190716113144 71 150 0.0 0.0 0.00 0.00 0.01 96 1010.9
20190716111607 71 150 0.0 0.0 0.00 0.00 0.01 96 1010.6
20190716110110 71 150 0.0 0.0 0.00 0.00 0.01 95 1010.4
20190716104632 71 149 0.0 0.0 0.00 0.00 0.01 95 1010.4
20190716103052 70 155 0.0 0.0 0.00 0.00 0.01 95 1010.5
20190716101555 70 155 0.0 0.0 0.00 0.00 0.01 95 1010.6
20190716100246 71 155 0.0 0.0 0.00 0.00 0.01 95 1010.7
20190716094631 71 155 0.0 0.0 0.00 0.00 0.01 95 1011.0
20190716093141 71 154 0.0 0.0 0.00 0.00 0.01 94 1011.3
20190716091605 70 154 0.0 0.0 0.00 0.00 0.01 94 1011.3
20190716090110 70 155 0.0 0.0 0.00 0.00 0.01 93 1011.5
20190716084556 70 154 0.0 0.0 0.00 0.00 0.01 93 1011.6
20190716083041 71 154 0.0 0.0 0.00 0.00 0.01 92 1011.6
20190716081625 71 154 0.0 0.0 0.00 0.00 0.00 92 1011.8
20190716080049 71 154 0.0 0.0 0.00 0.00 0.00 91 1011.9
20190716074558 71 154 0.0 0.0 0.00 0.00 0.00 90 1012.0
20190716073042 72 154 0.0 0.0 0.00 0.00 0.00 88 1012.2
20190716071600 72 154 0.0 0.0 0.00 0.00 0.00 87 1012.4
20190716070029 73 152 0.0 0.0 0.00 0.00 0.00 85 1012.4
20190716064553 73 263 0.0 0.0 0.00 0.00 0.00 83 1012.6
20190716063030 73 360 0.0 0.0 0.00 0.00 0.00 82 1012.5
20190716061546 73 360 0.0 0.0 0.00 0.00 0.00 83 1012.7
20190716060022 72 5 0.0 0.0 0.00 0.00 0.00 85 1012.7
20190716054545 71 360 0.0 0.0 0.00 0.00 0.00 86 1013.1
20190716053030 71 5 0.0 0.0 0.00 0.00 0.00 84 1013.2
20190716051513 71 360 0.0 0.0 0.00 0.00 0.00 83 1013.4
20190716050044 71 5 0.0 0.0 0.00 0.00 0.00 83 1013.4
20190716044530 72 5 0.0 0.0 0.00 0.00 0.00 82 1013.4
20190716043014 72 360 0.0 0.0 0.00 0.00 0.00 81 1013.6
20190716041537 72 5 0.0 0.0 0.00 0.00 0.00 80 1013.4
20190716040015 73 5 0.0 0.0 0.00 0.00 0.00 79 1013.4
20190716034513 74 5 0.0 0.0 0.00 0.00 0.00 78 1013.4
20190716033014 74 5 0.0 0.0 0.00 0.00 0.00 77 1013.3
20190716031552 74 5 0.0 0.0 0.00 0.00 0.00 76 1013.3
20190716030027 75 360 0.0 0.0 0.00 0.00 0.00 76 1013.3
20190716024508 75 360 0.0 0.0 0.00 0.00 0.00 75 1013.2
20190716023015 75 5 0.0 0.0 0.00 0.00 0.00 73 1012.9
20190716021508 76 5 0.0 0.0 0.00 0.00 0.00 72 1012.9
20190716020006 77 5 0.0 0.0 0.00 0.00 0.00 71 1012.8
20190716014506 77 360 0.0 0.0 0.00 0.00 0.00 70 1012.7
20190716013005 78 5 0.0 0.0 0.00 0.00 0.00 68 1013.1
20190716011504 79 360 0.0 0.0 0.00 0.00 0.00 67 1013.0
20190716010004 80 5 0.0 0.0 0.00 0.00 0.00 66 1013.2
20190716004510 81 261 0.0 0.0 0.00 0.00 0.00 65 1013.2
20190716003002 81 219 0.0 0.0 0.00 0.00 0.00 63 1013.4
20190716001508 82 19 0.0 0.0 0.00 0.00 0.00 62 1013.0
20190716000236 82 263 0.0 0.0 0.00 0.00 0.00 61 1012.8
20190715234706 83 242 0.0 0.0 0.00 0.00 0.00 63 1012.5
20190715233115 84 252 0.0 0.0 0.00 0.00 0.00 64 1012.1
20190715231656 84 244 0.0 0.0 0.00 0.00 0.00 63 1012.0
20190715230115 85 222 0.0 0.0 0.00 0.00 0.00 62 1012.1
20190715224623 85 253 0.0 0.0 0.00 0.00 0.00 64 1012.0
20190715223359 85 207 0.0 0.0 0.00 0.00 0.00 63 1012.1
20190715221624 86 228 0.0 0.0 0.00 0.00 0.00 63 1012.2
20190715220125 87 209 0.0 0.0 0.00 0.00 0.00 63 1012.3
20190715214627 87 237 0.0 0.0 0.00 0.00 0.00 61 1012.4
20190715213120 87 230 0.0 0.0 0.00 0.00 0.00 60 1012.5
20190715211730 87 285 0.0 0.0 0.00 0.00 0.00 59 1012.7
20190715210146 87 252 0.0 0.0 0.00 0.00 0.00 59 1012.8
20190715204635 87 259 0.0 0.0 0.00 0.00 0.00 58 1012.9
20190715203203 87 229 0.0 0.0 0.00 0.00 0.00 62 1013.1
20190715201748 87 213 0.0 0.0 0.00 0.00 0.00 60 1013.3
20190715200229 87 225 0.0 0.0 0.00 0.00 0.00 61 1013.6
20190715194621 87 187 0.0 0.0 0.00 0.00 0.00 60 1013.7
20190715193108 87 230 0.0 0.0 0.00 0.00 0.00 59 1014.0
20190715191621 87 271 0.0 0.0 0.00 0.00 0.00 61 1013.9
20190715190046 86 291 0.0 0.0 0.00 0.00 0.00 62 1014.1
20190715184604 86 281 0.0 0.0 0.00 0.00 0.00 61 1014.2
20190715183124 86 238 0.0 0.0 0.00 0.00 0.00 62 1014.3
20190715181616 85 276 0.0 0.0 0.00 0.00 0.00 63 1014.5